,,Stat6,,Stat2,,Stat8,,Stat9,,Stat10,,Wind1,,Wind1,
time,status,PA1M_AVG,status,PR1M_SUM,status,RH1M_AVG,status,SR1M_AVG,status,TA1M_AVG,status,W1dAve1m,status,W1sAve1m,
2005-07-17, 00:00:00,VALID,918.813,VALID,0,VALID,94.8731,VALID,0,VALID,19.7762,VALID,7,VALID,0.676781,
2005-07-17, 00:01:00,VALID,918.806,VALID,0,VALID,95.3449,VALID,-0.0169808,VALID,19.7792,VALID,7,VALID,0.466751,
2005-07-17, 00:02:00,VALID,918.807,VALID,0,VALID,95.3831,VALID,0,VALID,19.7854,VALID,9,VALID,0.411776,
2005-07-17, 00:03:00,VALID,918.793,VALID,0,VALID,95.3627,VALID,0,VALID,19.7919,VALID,13,VALID,0.4268,
2005-07-17, 00:04:00,VALID,918.787,VALID,0,VALID,95.1987,VALID,0,VALID,19.7949,VALID,26,VALID,0.449558,
2005-07-17, 00:05:00,VALID,918.777,VALID,0,VALID,95.0334,VALID,-0.0169808,VALID,19.7887,VALID,44,VALID,0.361471,
2005-07-17, 00:06:00,VALID,918.761,VALID,0,VALID,94.6595,VALID,0.0169808,VALID,19.7725,VALID,44,VALID,0.407138,
2005-07-17, 00:07:00,VALID,918.758,VALID,0,VALID,94.8236,VALID,0,VALID,19.7661,VALID,44,VALID,0.340116,
2005-07-17, 00:08:00,VALID,918.744,VALID,0,VALID,94.9838,VALID,-0.0169808,VALID,19.7598,VALID,44,VALID,0.208939,
2005-07-17, 00:09:00,VALID,918.723,VALID,0,VALID,95.1389,VALID,0,VALID,19.7435,VALID,44,VALID,0.3125,
2005-07-17, 00:10:00,VALID,918.694,VALID,0,VALID,95.0016,VALID,0.0169808,VALID,19.7365,VALID,44,VALID,0.360828,
2005-07-17, 00:11:00,VALID,918.681,VALID,0,VALID,94.6443,VALID,0.0339617,VALID,19.7209,VALID,47,VALID,0.495821,
2005-07-17, 00:12:00,VALID,918.664,VALID,0,VALID,94.6849,VALID,0,VALID,19.7079,VALID,51,VALID,0.486793,
2005-07-17, 00:13:00,VALID,918.636,VALID,0,VALID,94.8503,VALID,-0.0509425,VALID,19.7089,VALID,51,VALID,0.454527,
2005-07-17, 00:14:00,VALID,918.614,VALID,0,VALID,95.2597,VALID,-0.0679233,VALID,19.7189,VALID,51,VALID,0.337003,
2005-07-17, 00:15:00,VALID,918.609,VALID,0,VALID,95.5573,VALID,-0.0679233,VALID,19.7253,VALID,51,VALID,0.328307,
2005-07-17, 00:16:00,VALID,918.603,VALID,0,VALID,95.9489,VALID,-0.101885,VALID,19.738,VALID,51,VALID,0.119855,
2005-07-17, 00:17:00,VALID,918.57,VALID,0,VALID,96.2694,VALID,-0.0679233,VALID,19.771,VALID,51,VALID,0.227706,
2005-07-17, 00:18:00,VALID,918.576,VALID,0,VALID,96.4131,VALID,-0.0679233,VALID,19.7837,VALID,51,VALID,0.0483631,
2005-07-17, 00:19:00,VALID,918.546,VALID,0,VALID,96.16,VALID,-0.101885,VALID,19.7936,VALID,51,VALID,0.134146,
2005-07-17, 00:20:00,VALID,918.538,VALID,0,VALID,95.3309,VALID,-0.101885,VALID,19.7678,VALID,51,VALID,0.455035,
2005-07-17, 00:21:00,VALID,918.517,VALID,0,VALID,95.3042,VALID,-0.0849042,VALID,19.7606,VALID,51,VALID,0.426314,
2005-07-17, 00:22:00,VALID,918.502,VALID,0,VALID,95.425,VALID,-0.0679233,VALID,19.7839,VALID,51,VALID,0.362805,
2005-07-17, 00:23:00,VALID,918.503,VALID,0,VALID,95.5102,VALID,-0.0849042,VALID,19.7705,VALID,51,VALID,0.0172991,
2005-07-17, 00:24:00,VALID,918.467,VALID,0,VALID,95.6437,VALID,-0.0679233,VALID,19.7775,VALID,51,VALID,0,
2005-07-17, 00:25:00,VALID,918.464,VALID,0,VALID,95.8586,VALID,-0.0509425,VALID,19.7904,VALID,51,VALID,0.0199033,
2005-07-17, 00:26:00,VALID,918.459,VALID,0,VALID,96.1104,VALID,-0.0849042,VALID,19.7996,VALID,51,VALID,0.254179,
2005-07-17, 00:27:00,VALID,918.454,VALID,0,VALID,96.0952,VALID,-0.0849042,VALID,19.7934,VALID,51,VALID,0.384301,
2005-07-17, 00:28:00,VALID,918.456,VALID,0,VALID,96.1002,VALID,0,VALID,19.7792,VALID,51,VALID,0.412997,
2005-07-17, 00:29:00,VALID,918.448,VALID,0,VALID,96.0316,VALID,0,VALID,19.7631,VALID,51,VALID,0.339844,
2005-07-17, 00:30:00,VALID,918.43,VALID,0,VALID,95.9642,VALID,0.0169808,VALID,19.7569,VALID,51,VALID,0.440225,
2005-07-17, 00:31:00,VALID,918.411,VALID,0,VALID,96.1473,VALID,0,VALID,19.74,VALID,51,VALID,0.432884,
2005-07-17, 00:32:00,VALID,918.396,VALID,0,VALID,96.469,VALID,0.0339617,VALID,19.7333,VALID,49,VALID,0.422053,
2005-07-17, 00:33:00,VALID,918.383,VALID,0,VALID,96.6394,VALID,0,VALID,19.7305,VALID,47,VALID,0.495028,
2005-07-17, 00:34:00,VALID,918.368,VALID,0,VALID,96.6025,VALID,0.0339617,VALID,19.7109,VALID,35,VALID,0.718023,
2005-07-17, 00:35:00,VALID,918.357,VALID,0,VALID,96.4703,VALID,0,VALID,19.6955,VALID,30,VALID,0.796494,
2005-07-17, 00:36:00,VALID,918.363,VALID,0,VALID,96.0735,VALID,0.0339617,VALID,19.663,VALID,19,VALID,0.90987,
2005-07-17, 00:37:00,VALID,918.371,VALID,0,VALID,95.8892,VALID,0.0169808,VALID,19.6501,VALID,19,VALID,0.835938,
2005-07-17, 00:38:00,VALID,918.372,VALID,0,VALID,96.0354,VALID,0,VALID,19.663,VALID,17,VALID,0.730196,
2005-07-17, 00:39:00,VALID,918.395,VALID,0,VALID,94.9812,VALID,0,VALID,19.6337,VALID,12,VALID,0.658537,
2005-07-17, 00:40:00,VALID,918.386,VALID,0,VALID,94.7956,VALID,0.0169808,VALID,19.6535,VALID,4,VALID,0.37965,
2005-07-17, 00:41:00,VALID,918.397,VALID,0,VALID,94.3022,VALID,0,VALID,19.6498,VALID,345,VALID,0.463118,
2005-07-17, 00:42:00,VALID,918.379,VALID,0,VALID,94.3238,VALID,0,VALID,19.6732,VALID,325,VALID,0.479297,
2005-07-17, 00:43:00,VALID,918.37,VALID,0,VALID,94.2259,VALID,-0.0849042,VALID,19.703,VALID,293,VALID,0.109756,
2005-07-17, 00:44:00,VALID,918.365,VALID,0,VALID,94.4522,VALID,-0.0849042,VALID,19.7223,VALID,293,VALID,0.0967262,
2005-07-17, 00:45:00,VALID,918.367,VALID,0,VALID,95.1529,VALID,-0.0679233,VALID,19.7517,VALID,293,VALID,0.26875,
2005-07-17, 00:46:00,VALID,918.358,VALID,0,VALID,95.5776,VALID,-0.0849042,VALID,19.7417,VALID,293,VALID,0,
2005-07-17, 00:47:00,VALID,918.353,VALID,0,VALID,95.809,VALID,-0.0679233,VALID,19.7392,VALID,293,VALID,0,
2005-07-17, 00:48:00,VALID,918.343,VALID,0,VALID,95.9451,VALID,-0.0679233,VALID,19.7127,VALID,293,VALID,0.00130208,
2005-07-17, 00:49:00,VALID,918.345,VALID,0,VALID,96.1435,VALID,-0.101885,VALID,19.7032,VALID,293,VALID,0,
2005-07-17, 00:50:00,VALID,918.334,VALID,0,VALID,96.338,VALID,-0.101885,VALID,19.6903,VALID,293,VALID,0,
2005-07-17, 00:51:00,VALID,918.321,VALID,0,VALID,96.2999,VALID,-0.101885,VALID,19.6481,VALID,293,VALID,0.302782,
2005-07-17, 00:52:00,VALID,918.31,VALID,0,VALID,96.3075,VALID,-0.101885,VALID,19.6193,VALID,285,VALID,0.397321,
2005-07-17, 00:53:00,VALID,918.298,VALID,0,VALID,96.3686,VALID,-0.0679233,VALID,19.6031,VALID,271,VALID,0.388579,
2005-07-17, 00:54:00,VALID,918.28,VALID,0,VALID,96.6915,VALID,-0.101885,VALID,19.6265,VALID,264,VALID,0.410342,
2005-07-17, 00:55:00,VALID,918.282,VALID,0,VALID,96.586,VALID,-0.101885,VALID,19.5937,VALID,259,VALID,0.419017,
2005-07-17, 00:56:00,VALID,918.295,VALID,0,VALID,96.5949,VALID,-0.101885,VALID,19.5773,VALID,262,VALID,0.327939,
2005-07-17, 00:57:00,VALID,918.296,VALID,0,VALID,96.8263,VALID,-0.0849042,VALID,19.5738,VALID,262,VALID,0.160823,
2005-07-17, 00:58:00,VALID,918.305,VALID,0,VALID,97.1086,VALID,0.0169808,VALID,19.5631,VALID,262,VALID,0.149926,
2005-07-17, 00:59:00,VALID,918.315,VALID,0,VALID,97.265,VALID,0.0509425,VALID,19.5527,VALID,262,VALID,0.0296875,
2005-07-17, 01:00:00,VALID,918.32,VALID,0,VALID,97.3223,VALID,0,VALID,19.5368,VALID,262,VALID,0.243118,
2005-07-17, 01:01:00,VALID,918.317,VALID,0,VALID,97.073,VALID,0.0169808,VALID,19.5214,VALID,263,VALID,0.339844,
2005-07-17, 01:02:00,VALID,918.322,VALID,0,VALID,96.806,VALID,0,VALID,19.505,VALID,263,VALID,0,
2005-07-17, 01:03:00,VALID,918.324,VALID,0,VALID,96.7907,VALID,0,VALID,19.4854,VALID,308,VALID,0.323828,
2005-07-17, 01:04:00,VALID,918.322,VALID,0,VALID,96.7666,VALID,0.0169808,VALID,19.4757,VALID,316,VALID,0.00190549,
2005-07-17, 01:05:00,VALID,918.318,VALID,0,VALID,96.7322,VALID,0.0169808,VALID,19.4633,VALID,316,VALID,0,
2005-07-17, 01:06:00,VALID,918.318,VALID,0,VALID,96.8085,VALID,0,VALID,19.4504,VALID,316,VALID,0,
2005-07-17, 01:07:00,VALID,918.312,VALID,0,VALID,96.9141,VALID,0.0339617,VALID,19.4434,VALID,316,VALID,0.00114329,
2005-07-17, 01:08:00,VALID,918.304,VALID,0,VALID,96.7933,VALID,0,VALID,19.4471,VALID,316,VALID,0,
2005-07-17, 01:09:00,VALID,918.305,VALID,0,VALID,96.6814,VALID,0,VALID,19.4571,VALID,316,VALID,0,
2005-07-17, 01:10:00,VALID,918.292,VALID,0,VALID,96.6229,VALID,0,VALID,19.4571,VALID,316,VALID,0,
2005-07-17, 01:11:00,VALID,918.281,VALID,0,VALID,96.7017,VALID,0,VALID,19.4474,VALID,316,VALID,0,
2005-07-17, 01:12:00,VALID,918.278,VALID,0,VALID,96.8759,VALID,0.0339617,VALID,19.4282,VALID,316,VALID,0,
2005-07-17, 01:13:00,VALID,918.271,VALID,0,VALID,96.9484,VALID,0,VALID,19.4183,VALID,316,VALID,0,
2005-07-17, 01:14:00,VALID,918.263,VALID,0,VALID,96.7895,VALID,0,VALID,19.3957,VALID,316,VALID,0,
2005-07-17, 01:15:00,VALID,918.258,VALID,0,VALID,96.6305,VALID,0.0169808,VALID,19.3701,VALID,316,VALID,0,
2005-07-17, 01:16:00,VALID,918.232,VALID,0,VALID,96.6203,VALID,0.0169808,VALID,19.3473,VALID,316,VALID,0,
2005-07-17, 01:17:00,VALID,918.225,VALID,0,VALID,96.7322,VALID,0,VALID,19.3145,VALID,289,VALID,0.339844,
2005-07-17, 01:18:00,VALID,918.22,VALID,0,VALID,97.0349,VALID,0,VALID,19.2924,VALID,191,VALID,0.518821,
2005-07-17, 01:19:00,VALID,918.205,VALID,0,VALID,97.3223,VALID,0,VALID,19.2502,VALID,190,VALID,0.375372,
2005-07-17, 01:20:00,VALID,918.19,VALID,0,VALID,97.5588,VALID,0.0339617,VALID,19.2147,VALID,190,VALID,0.129688,
2005-07-17, 01:21:00,VALID,918.184,VALID,0,VALID,97.6923,VALID,0.0169808,VALID,19.1888,VALID,190,VALID,0,
2005-07-17, 01:22:00,VALID,918.175,VALID,0,VALID,97.6414,VALID,0,VALID,19.1628,VALID,190,VALID,0,
2005-07-17, 01:23:00,VALID,918.167,VALID,0,VALID,97.6351,VALID,0.0169808,VALID,19.1243,VALID,190,VALID,0,
2005-07-17, 01:24:00,VALID,918.146,VALID,0,VALID,97.7381,VALID,0.0169808,VALID,19.118,VALID,190,VALID,0,
2005-07-17, 01:25:00,VALID,918.15,VALID,0,VALID,97.7254,VALID,0,VALID,19.1021,VALID,190,VALID,0.00603693,
2005-07-17, 01:26:00,VALID,918.139,VALID,0,VALID,97.7559,VALID,0.0339617,VALID,19.0728,VALID,190,VALID,0.281072,
2005-07-17, 01:27:00,VALID,918.141,VALID,0,VALID,97.8144,VALID,0.0169808,VALID,19.0498,VALID,190,VALID,0.254764,
2005-07-17, 01:28:00,VALID,918.14,VALID,0,VALID,97.9008,VALID,0,VALID,19.0408,VALID,190,VALID,0.229353,
2005-07-17, 01:29:00,VALID,918.137,VALID,0,VALID,97.8779,VALID,0,VALID,19.008,VALID,190,VALID,0.373884,
2005-07-17, 01:30:00,VALID,918.133,VALID,0,VALID,97.9606,VALID,0,VALID,18.9728,VALID,139,VALID,0.494855,
2005-07-17, 01:31:00,VALID,918.138,VALID,0,VALID,98.1056,VALID,0,VALID,18.9469,VALID,79,VALID,0.568537,
2005-07-17, 01:32:00,VALID,918.138,VALID,0,VALID,98.3599,VALID,0,VALID,18.9342,VALID,79,VALID,0.383557,
2005-07-17, 01:33:00,VALID,918.135,VALID,0,VALID,98.4031,VALID,0,VALID,18.9407,VALID,79,VALID,0.074673,
2005-07-17, 01:34:00,VALID,918.134,VALID,0,VALID,98.3039,VALID,0,VALID,18.9372,VALID,79,VALID,0.235491,
2005-07-17, 01:35:00,VALID,918.144,VALID,0,VALID,98.1412,VALID,0.0339617,VALID,18.9497,VALID,79,VALID,0.0101744,
2005-07-17, 01:36:00,VALID,918.131,VALID,0,VALID,98.0433,VALID,0.0169808,VALID,18.9626,VALID,79,VALID,0,
2005-07-17, 01:37:00,VALID,918.118,VALID,0,VALID,98.0127,VALID,0,VALID,19.005,VALID,79,VALID,0,
2005-07-17, 01:38:00,VALID,918.108,VALID,0,VALID,97.9186,VALID,0.0339617,VALID,19.0341,VALID,79,VALID,0,
2005-07-17, 01:39:00,VALID,918.076,VALID,0,VALID,97.8423,VALID,0.0339617,VALID,19.0728,VALID,79,VALID,0,
2005-07-17, 01:40:00,VALID,918.052,VALID,0,VALID,97.7444,VALID,0.0849042,VALID,19.0952,VALID,79,VALID,0,
2005-07-17, 01:41:00,VALID,918.02,VALID,0,VALID,97.5702,VALID,0,VALID,19.1307,VALID,79,VALID,0,
2005-07-17, 01:42:00,VALID,918.002,VALID,0,VALID,97.1404,VALID,0,VALID,19.1469,VALID,79,VALID,0,
2005-07-17, 01:43:00,VALID,917.979,VALID,0,VALID,96.736,VALID,0.0509425,VALID,19.1603,VALID,79,VALID,0,
2005-07-17, 01:44:00,VALID,917.969,VALID,0,VALID,96.6661,VALID,0.0169808,VALID,19.1831,VALID,79,VALID,0,
2005-07-17, 01:45:00,VALID,917.953,VALID,0,VALID,96.6076,VALID,0.0169808,VALID,19.2248,VALID,79,VALID,0,
2005-07-17, 01:46:00,VALID,917.948,VALID,0,VALID,96.3342,VALID,0.0169808,VALID,19.2539,VALID,79,VALID,0.170455,
2005-07-17, 01:47:00,VALID,917.923,VALID,0,VALID,96.174,VALID,0,VALID,19.2827,VALID,79,VALID,0.114281,
2005-07-17, 01:48:00,VALID,917.909,VALID,0,VALID,96.0672,VALID,0,VALID,19.2894,VALID,79,VALID,0,
2005-07-17, 01:49:00,VALID,917.88,VALID,0,VALID,96.5211,VALID,0.0509425,VALID,19.3147,VALID,79,VALID,0.0388808,
2005-07-17, 01:50:00,VALID,917.893,VALID,0,VALID,96.7411,VALID,0,VALID,19.3341,VALID,79,VALID,0,
2005-07-17, 01:51:00,VALID,917.874,VALID,0,VALID,96.9306,VALID,0.0509425,VALID,19.347,VALID,79,VALID,0.0757631,
2005-07-17, 01:52:00,VALID,917.868,VALID,0,VALID,96.984,VALID,0.0169808,VALID,19.35,VALID,79,VALID,0.0872396,
2005-07-17, 01:53:00,VALID,917.86,VALID,0,VALID,97.0501,VALID,0,VALID,19.3667,VALID,79,VALID,0.150152,
2005-07-17, 01:54:00,VALID,917.867,VALID,0,VALID,96.8848,VALID,0.0169808,VALID,19.3637,VALID,78,VALID,0.232376,
2005-07-17, 01:55:00,VALID,917.855,VALID,0,VALID,96.7996,VALID,0,VALID,19.3537,VALID,78,VALID,0.16369,
2005-07-17, 01:56:00,VALID,917.845,VALID,0,VALID,96.8251,VALID,0.0169808,VALID,19.3503,VALID,78,VALID,0.0399926,
2005-07-17, 01:57:00,VALID,917.844,VALID,0,VALID,96.8746,VALID,0,VALID,19.3445,VALID,78,VALID,0.192116,
2005-07-17, 01:58:00,VALID,917.831,VALID,0,VALID,96.7996,VALID,0,VALID,19.3254,VALID,64,VALID,0.364844,
2005-07-17, 01:59:00,VALID,917.822,VALID,0,VALID,96.5771,VALID,-0.0849042,VALID,19.3063,VALID,45,VALID,0.396763,
2005-07-17, 02:00:00,VALID,917.814,VALID,0,VALID,96.6178,VALID,-0.0509425,VALID,19.2968,VALID,41,VALID,0.332304,
2005-07-17, 02:01:00,VALID,917.794,VALID,0,VALID,96.7564,VALID,-0.0679233,VALID,19.277,VALID,41,VALID,0.187691,
2005-07-17, 02:02:00,VALID,917.779,VALID,0,VALID,96.8162,VALID,-0.0339617,VALID,19.2938,VALID,41,VALID,0,
2005-07-17, 02:03:00,VALID,917.772,VALID,0,VALID,96.7729,VALID,-0.0169808,VALID,19.2708,VALID,41,VALID,0,
2005-07-17, 02:04:00,VALID,917.778,VALID,0,VALID,96.9344,VALID,-0.0169808,VALID,19.2541,VALID,41,VALID,0.107244,
2005-07-17, 02:05:00,VALID,917.757,VALID,0,VALID,96.9865,VALID,0,VALID,19.2571,VALID,41,VALID,0.142987,
2005-07-17, 02:06:00,VALID,917.769,VALID,0,VALID,97.1277,VALID,-0.0679233,VALID,19.2511,VALID,41,VALID,0.0132813,
2005-07-17, 02:07:00,VALID,917.774,VALID,0,VALID,97.2065,VALID,-0.0509425,VALID,19.2474,VALID,41,VALID,0,
2005-07-17, 02:08:00,VALID,917.762,VALID,0,VALID,97.1557,VALID,-0.0679233,VALID,19.2745,VALID,41,VALID,0,
2005-07-17, 02:09:00,VALID,917.753,VALID,0,VALID,97.1455,VALID,-0.0679233,VALID,19.2705,VALID,41,VALID,0,
2005-07-17, 02:10:00,VALID,917.739,VALID,0,VALID,96.9891,VALID,-0.0509425,VALID,19.2901,VALID,41,VALID,0,
2005-07-17, 02:11:00,VALID,917.734,VALID,0,VALID,96.7271,VALID,-0.0679233,VALID,19.2834,VALID,41,VALID,0.130952,
2005-07-17, 02:12:00,VALID,917.738,VALID,0,VALID,96.4207,VALID,-0.0849042,VALID,19.2804,VALID,41,VALID,0.272879,
2005-07-17, 02:13:00,VALID,917.726,VALID,0,VALID,96.1104,VALID,0.0509425,VALID,19.2959,VALID,41,VALID,0.228125,
2005-07-17, 02:14:00,VALID,917.698,VALID,0,VALID,95.8078,VALID,0.0169808,VALID,19.3118,VALID,41,VALID,0.105183,
2005-07-17, 02:15:00,VALID,917.676,VALID,0,VALID,95.5535,VALID,0.0169808,VALID,19.3346,VALID,41,VALID,0,
2005-07-17, 02:16:00,VALID,917.655,VALID,0,VALID,95.0613,VALID,0.0169808,VALID,19.3537,VALID,41,VALID,0.147104,
2005-07-17, 02:17:00,VALID,917.643,VALID,0,VALID,94.7104,VALID,0.0339617,VALID,19.3726,VALID,42,VALID,0.407703,
2005-07-17, 02:18:00,VALID,917.62,VALID,0,VALID,95.1872,VALID,0.0169808,VALID,19.424,VALID,43,VALID,0.362827,
2005-07-17, 02:19:00,VALID,917.6,VALID,0,VALID,95.0791,VALID,0.0169808,VALID,19.4504,VALID,43,VALID,0.548209,
2005-07-17, 02:20:00,VALID,917.597,VALID,0,VALID,94.4942,VALID,0.0339617,VALID,19.4407,VALID,49,VALID,0.582304,
2005-07-17, 02:21:00,VALID,917.6,VALID,0,VALID,93.6562,VALID,0,VALID,19.4409,VALID,56,VALID,0.430804,
2005-07-17, 02:22:00,VALID,917.574,VALID,0,VALID,92.8691,VALID,0.0339617,VALID,19.4633,VALID,56,VALID,0.328497,
2005-07-17, 02:23:00,VALID,917.571,VALID,0,VALID,92.4164,VALID,0.0169808,VALID,19.5117,VALID,56,VALID,0.293064,
2005-07-17, 02:24:00,VALID,917.553,VALID,0,VALID,91.9192,VALID,0,VALID,19.5736,VALID,56,VALID,0.521019,
2005-07-17, 02:25:00,VALID,917.546,VALID,0,VALID,91.4258,VALID,0.0169808,VALID,19.6443,VALID,46,VALID,0.304116,
2005-07-17, 02:26:00,VALID,917.543,VALID,0,VALID,92.2676,VALID,0.0509425,VALID,19.7087,VALID,53,VALID,0.392829,
2005-07-17, 02:27:00,VALID,917.524,VALID,0,VALID,93.3243,VALID,0.0339617,VALID,19.738,VALID,87,VALID,0.486523,
2005-07-17, 02:28:00,VALID,917.524,VALID,0,VALID,94.1242,VALID,0.0339617,VALID,19.7246,VALID,119,VALID,0.592578,
2005-07-17, 02:29:00,VALID,917.515,VALID,0,VALID,94.9533,VALID,0.0679233,VALID,19.6794,VALID,108,VALID,0.521723,
2005-07-17, 02:30:00,VALID,917.512,VALID,0,VALID,95.5395,VALID,0.0679233,VALID,19.6083,VALID,122,VALID,0.802144,
2005-07-17, 02:31:00,VALID,917.49,VALID,0,VALID,96.2236,VALID,0.0339617,VALID,19.5475,VALID,123,VALID,0.611737,
2005-07-17, 02:32:00,VALID,917.478,VALID,0,VALID,96.7068,VALID,0.0339617,VALID,19.47,VALID,120,VALID,0.746943,
2005-07-17, 02:33:00,VALID,917.46,VALID,0,VALID,97.1913,VALID,0.0339617,VALID,19.4052,VALID,117,VALID,1.02381,
2005-07-17, 02:34:00,VALID,917.436,VALID,0,VALID,97.6414,VALID,0.0339617,VALID,19.3433,VALID,113,VALID,0.981707,
2005-07-17, 02:35:00,VALID,917.401,VALID,0,VALID,98.0661,VALID,0.0509425,VALID,19.3147,VALID,97,VALID,0.724276,
2005-07-17, 02:36:00,VALID,917.366,VALID,0,VALID,98.2976,VALID,0.0169808,VALID,19.2926,VALID,105,VALID,0.739826,
2005-07-17, 02:37:00,VALID,917.326,VALID,0,VALID,98.5277,VALID,0.0169808,VALID,19.2405,VALID,106,VALID,0.749818,
2005-07-17, 02:38:00,VALID,917.279,VALID,0,VALID,98.8126,VALID,0.0849042,VALID,19.2174,VALID,110,VALID,0.92207,
2005-07-17, 02:39:00,VALID,917.258,VALID,0,VALID,99.0822,VALID,0.0339617,VALID,19.1854,VALID,107,VALID,0.505269,
2005-07-17, 02:40:00,VALID,917.223,VALID,0,VALID,99.2551,VALID,0.0679233,VALID,19.1593,VALID,107,VALID,0.750372,
2005-07-17, 02:41:00,VALID,917.195,VALID,0,VALID,99.4598,VALID,0.0169808,VALID,19.1208,VALID,105,VALID,0.801599,
2005-07-17, 02:42:00,VALID,917.161,VALID,0,VALID,99.6289,VALID,0.0169808,VALID,19.0982,VALID,100,VALID,0.796113,
2005-07-17, 02:43:00,VALID,917.141,VALID,0,VALID,99.8006,VALID,0.0849042,VALID,19.0726,VALID,100,VALID,0.829687,
2005-07-17, 02:44:00,VALID,917.124,VALID,0,VALID,99.9504,VALID,0.0339617,VALID,19.0461,VALID,101,VALID,0.825893,
2005-07-17, 02:45:00,VALID,917.094,VALID,0,VALID,100,VALID,0.0339617,VALID,19.0401,VALID,103,VALID,0.883371,
2005-07-17, 02:46:00,VALID,917.052,VALID,0,VALID,100,VALID,0.0169808,VALID,19.0242,VALID,109,VALID,0.960392,
2005-07-17, 02:47:00,VALID,917.041,VALID,0,VALID,100,VALID,0.0339617,VALID,19.0244,VALID,108,VALID,0.852307,
2005-07-17, 02:48:00,VALID,917.024,VALID,0,VALID,100,VALID,0.0509425,VALID,19.0343,VALID,112,VALID,0.535251,
2005-07-17, 02:49:00,VALID,917.013,VALID,0,VALID,100,VALID,0.0339617,VALID,19.0209,VALID,114,VALID,0.821875,
2005-07-17, 02:50:00,VALID,917.025,VALID,0,VALID,100,VALID,0.0169808,VALID,19.0177,VALID,113,VALID,0.996911,
2005-07-17, 02:51:00,VALID,916.997,VALID,0,VALID,100,VALID,0.0339617,VALID,19.0182,VALID,113,VALID,0.85992,
2005-07-17, 02:52:00,VALID,916.986,VALID,0,VALID,100,VALID,0.0169808,VALID,19.0087,VALID,112,VALID,0.98418,
2005-07-17, 02:53:00,VALID,916.962,VALID,0,VALID,100,VALID,0,VALID,18.9956,VALID,104,VALID,0.934375,
2005-07-17, 02:54:00,VALID,916.962,VALID,0,VALID,100,VALID,-0.0169808,VALID,18.9859,VALID,105,VALID,0.865513,
2005-07-17, 02:55:00,VALID,916.94,VALID,0,VALID,100,VALID,-0.0169808,VALID,18.9896,VALID,110,VALID,0.87314,
2005-07-17, 02:56:00,VALID,916.912,VALID,0,VALID,100,VALID,0,VALID,18.9765,VALID,116,VALID,0.582849,
2005-07-17, 02:57:00,VALID,916.882,VALID,0,VALID,100,VALID,0.0339617,VALID,18.97,VALID,131,VALID,0.636347,
2005-07-17, 02:58:00,VALID,916.835,VALID,0,VALID,100,VALID,0,VALID,18.9668,VALID,136,VALID,0.624628,
2005-07-17, 02:59:00,VALID,916.809,VALID,0,VALID,100,VALID,0,VALID,18.9769,VALID,140,VALID,0.674183,
2005-07-17, 03:00:00,VALID,916.784,VALID,0,VALID,100,VALID,-0.0169808,VALID,18.9673,VALID,147,VALID,0.594477,
2005-07-17, 03:01:00,VALID,916.763,VALID,0,VALID,100,VALID,-0.0169808,VALID,18.9606,VALID,130,VALID,0.562326,
2005-07-17, 03:02:00,VALID,916.747,VALID,0,VALID,100,VALID,-0.0169808,VALID,18.9543,VALID,131,VALID,0.443132,
2005-07-17, 03:03:00,VALID,916.762,VALID,0,VALID,100,VALID,0,VALID,18.9484,VALID,126,VALID,0.312855,
2005-07-17, 03:04:00,VALID,916.778,VALID,0,VALID,100,VALID,0,VALID,18.925,VALID,125,VALID,0.227325,
2005-07-17, 03:05:00,VALID,916.769,VALID,0,VALID,100,VALID,0,VALID,18.9119,VALID,125,VALID,0.316592,
2005-07-17, 03:06:00,VALID,916.762,VALID,0,VALID,100,VALID,-0.0169808,VALID,18.9024,VALID,122,VALID,0.385603,
2005-07-17, 03:07:00,VALID,916.765,VALID,0,VALID,100,VALID,0,VALID,18.8826,VALID,122,VALID,0.252841,
2005-07-17, 03:08:00,VALID,916.754,VALID,0,VALID,100,VALID,0.0169808,VALID,18.8766,VALID,122,VALID,0.198219,
2005-07-17, 03:09:00,VALID,916.748,VALID,0,VALID,100,VALID,0,VALID,18.8761,VALID,122,VALID,0.189276,
2005-07-17, 03:10:00,VALID,916.721,VALID,0,VALID,100,VALID,0,VALID,18.857,VALID,122,VALID,0.0414807,
2005-07-17, 03:11:00,VALID,916.709,VALID,0,VALID,100,VALID,0,VALID,18.8471,VALID,120,VALID,0.256925,
2005-07-17, 03:12:00,VALID,916.694,VALID,0,VALID,100,VALID,-0.0169808,VALID,18.8485,VALID,118,VALID,0.0171875,
2005-07-17, 03:13:00,VALID,916.683,VALID,0,VALID,100,VALID,-0.0849042,VALID,18.8033,VALID,118,VALID,0,
2005-07-17, 03:14:00,VALID,916.664,VALID,0,VALID,100,VALID,-0.0849042,VALID,18.7976,VALID,118,VALID,0,
2005-07-17, 03:15:00,VALID,916.673,VALID,0,VALID,100,VALID,-0.101885,VALID,18.8075,VALID,118,VALID,0,
2005-07-17, 03:16:00,VALID,916.683,VALID,0,VALID,100,VALID,-0.0849042,VALID,18.7966,VALID,118,VALID,0,
2005-07-17, 03:17:00,VALID,916.662,VALID,0,VALID,100,VALID,-0.101885,VALID,18.7941,VALID,118,VALID,0.0617898,
2005-07-17, 03:18:00,VALID,916.663,VALID,0,VALID,100,VALID,-0.101885,VALID,18.768,VALID,111,VALID,0.360465,
2005-07-17, 03:19:00,VALID,916.668,VALID,0,VALID,100,VALID,-0.0679233,VALID,18.7484,VALID,69,VALID,0.46657,
2005-07-17, 03:20:00,VALID,916.652,VALID,0,VALID,100,VALID,-0.0849042,VALID,18.7459,VALID,69,VALID,0.478795,
2005-07-17, 03:21:00,VALID,916.646,VALID,0,VALID,100,VALID,-0.101885,VALID,18.7263,VALID,69,VALID,0.591025,
2005-07-17, 03:22:00,VALID,916.625,VALID,0,VALID,99.9639,VALID,-0.0679233,VALID,18.7387,VALID,69,VALID,0.622456,
2005-07-17, 03:23:00,VALID,916.622,VALID,0,VALID,99.6556,VALID,-0.0679233,VALID,18.7909,VALID,69,VALID,0.526344,
2005-07-17, 03:24:00,VALID,916.628,VALID,0,VALID,99.1686,VALID,-0.101885,VALID,18.8361,VALID,69,VALID,0.600836,
2005-07-17, 03:25:00,VALID,916.629,VALID,0,VALID,98.5773,VALID,-0.0849042,VALID,18.8877,VALID,69,VALID,0.533854,
2005-07-17, 03:26:00,VALID,916.641,VALID,0,VALID,98.117,VALID,-0.101885,VALID,18.9334,VALID,84,VALID,0.619721,
2005-07-17, 03:27:00,VALID,916.639,VALID,0,VALID,97.9085,VALID,-0.0849042,VALID,18.9719,VALID,99,VALID,0.564918,
2005-07-17, 03:28:00,VALID,916.644,VALID,0,VALID,97.8042,VALID,0.0169808,VALID,18.9933,VALID,99,VALID,0.537305,
2005-07-17, 03:29:00,VALID,916.618,VALID,0,VALID,97.8678,VALID,0,VALID,18.9995,VALID,107,VALID,0.701527,
2005-07-17, 03:30:00,VALID,916.611,VALID,0,VALID,97.8093,VALID,0.0169808,VALID,19.0023,VALID,110,VALID,0.672917,
2005-07-17, 03:31:00,VALID,916.608,VALID,0,VALID,97.7304,VALID,0.0169808,VALID,19.0092,VALID,110,VALID,0.411458,
2005-07-17, 03:32:00,VALID,916.623,VALID,0,VALID,97.7457,VALID,0.0509425,VALID,19.0184,VALID,110,VALID,0.36441,
2005-07-17, 03:33:00,VALID,916.618,VALID,0,VALID,97.7279,VALID,0.0169808,VALID,19.0182,VALID,110,VALID,0.0632622,
2005-07-17, 03:34:00,VALID,916.611,VALID,0,VALID,97.747,VALID,0.0169808,VALID,19.0286,VALID,110,VALID,0,
2005-07-17, 03:35:00,VALID,916.611,VALID,0,VALID,97.7393,VALID,0,VALID,19.0351,VALID,110,VALID,0,
2005-07-17, 03:36:00,VALID,916.603,VALID,0,VALID,97.7343,VALID,0.0339617,VALID,19.0254,VALID,110,VALID,0,
2005-07-17, 03:37:00,VALID,916.62,VALID,0,VALID,97.7381,VALID,0,VALID,19.0219,VALID,110,VALID,0,